• In France
  • List of Countries
  • For 7 days
  • Water Temperature
  • Satellite Maps
  • Weather Map
  • Weather Widgets
  • user-avatar
    Login

    Hourly Weather Bogolyubovka

    Today, 16 July, Monday

    Time Temperature Precipitation Wind Pressure Humidity
    00:00 +20°C° 0.3 mm 2 mps 743 mmHg 88%
    01:00 +20°C° 0 mm 2 mps 743 mmHg 89%
    02:00 +20°C° 0 mm 2 mps 743 mmHg 90%
    03:00 +19°C° 0 mm 2 mps 743 mmHg 92%
    04:00 +20°C° 0 mm 2 mps 743 mmHg 91%
    05:00 +20°C° 0 mm 2 mps 743 mmHg 90%
    06:00 +20°C° 0 mm 3 mps 743 mmHg 89%
    07:00 +22°C° 0 mm 3 mps 743 mmHg 83%
    08:00 +25°C° 0 mm 3 mps 743 mmHg 77%
    09:00 +27°C° 0 mm 3 mps 743 mmHg 71%
    10:00 +28°C° 0 mm 4 mps 743 mmHg 65%
    11:00 +29°C° 0 mm 4 mps 742 mmHg 60%
    12:00 +30°C° 0 mm 4 mps 742 mmHg 54%
    13:00 +32°C° 0 mm 4 mps 742 mmHg 53%
    14:00 +32°C° 0 mm 5 mps 742 mmHg 52%
    15:00 +32°C° 0 mm 5 mps 742 mmHg 51%
    16:00 +32°C° 0 mm 4 mps 742 mmHg 56%
    17:00 +30°C° 0 mm 4 mps 742 mmHg 61%
    18:00 +29°C° 0 mm 4 mps 741 mmHg 66%
    19:00 +27°C° 0.3 mm 3 mps 741 mmHg 72%
    20:00 +26°C° 0.3 mm 3 mps 741 mmHg 79%
    21:00 +24°C° 0.3 mm 3 mps 741 mmHg 86%
    22:00 +22°C° 0 mm 3 mps 741 mmHg 87%
    23:00 +22°C° 0 mm 3 mps 741 mmHg 88%

    Tomorrow, 17 July, Tuesday

    Time Temperature Precipitation Wind Pressure Humidity
    00:00 +21°C° 0 mm 3 mps 741 mmHg 89%
    01:00 +21°C° 0 mm 3 mps 741 mmHg 90%
    02:00 +21°C° 0 mm 4 mps 740 mmHg 90%
    03:00 +21°C° 0 mm 4 mps 740 mmHg 90%
    04:00 +21°C° 0 mm 4 mps 740 mmHg 90%
    05:00 +21°C° 0 mm 4 mps 740 mmHg 90%
    06:00 +21°C° 0 mm 4 mps 740 mmHg 90%
    07:00 +22°C° 0.2 mm 4 mps 740 mmHg 86%
    08:00 +23°C° 0.2 mm 4 mps 740 mmHg 82%
    09:00 +25°C° 0.2 mm 4 mps 739 mmHg 78%
    10:00 +25°C° 1.3 mm 4 mps 739 mmHg 81%
    11:00 +23°C° 1.3 mm 4 mps 739 mmHg 84%
    12:00 +23°C° 1.3 mm 5 mps 739 mmHg 88%
    13:00 +22°C° 1.4 mm 4 mps 739 mmHg 88%
    14:00 +22°C° 1.4 mm 4 mps 739 mmHg 88%
    15:00 +21°C° 1.4 mm 4 mps 739 mmHg 88%
    16:00 +21°C° 0.3 mm 4 mps 739 mmHg 88%
    17:00 +21°C° 0.3 mm 4 mps 739 mmHg 89%
    18:00 +21°C° 0.3 mm 4 mps 738 mmHg 89%
    19:00 +21°C° 0.2 mm 4 mps 738 mmHg 91%
    20:00 +20°C° 0.2 mm 4 mps 738 mmHg 93%
    21:00 +20°C° 0.2 mm 4 mps 738 mmHg 95%
    22:00 +20°C° 0.2 mm 4 mps 738 mmHg 95%
    23:00 +20°C° 0.2 mm 3 mps 738 mmHg 96%

    Day after tomorrow, 18 July, Wednesday

    Time Temperature Precipitation Wind Pressure Humidity
    00:00 +20°C° 0.2 mm 3 mps 738 mmHg 97%
    01:00 +20°C° 0.7 mm 3 mps 738 mmHg 97%
    02:00 +19°C° 0.7 mm 3 mps 738 mmHg 97%
    03:00 +19°C° 0.7 mm 3 mps 738 mmHg 97%
    04:00 +19°C° 0.7 mm 3 mps 738 mmHg 97%
    05:00 +19°C° 0.7 mm 3 mps 738 mmHg 96%
    06:00 +19°C° 0.7 mm 3 mps 738 mmHg 96%
    07:00 +20°C° 0.2 mm 3 mps 738 mmHg 93%
    08:00 +20°C° 0.2 mm 3 mps 738 mmHg 90%
    09:00 +21°C° 0.2 mm 3 mps 739 mmHg 86%
    10:00 +22°C° 0.1 mm 4 mps 739 mmHg 80%
    11:00 +25°C° 0.1 mm 4 mps 739 mmHg 73%
    12:00 +26°C° 0.1 mm 4 mps 739 mmHg 66%
    13:00 +27°C° 0.3 mm 4 mps 739 mmHg 65%
    14:00 +27°C° 0.3 mm 4 mps 739 mmHg 64%
    15:00 +27°C° 0.3 mm 4 mps 739 mmHg 63%
    16:00 +27°C° 0.3 mm 4 mps 740 mmHg 67%
    17:00 +26°C° 0.3 mm 3 mps 740 mmHg 70%
    18:00 +26°C° 0.3 mm 3 mps 740 mmHg 74%
    19:00 +25°C° 0.1 mm 3 mps 740 mmHg 78%
    20:00 +22°C° 0.1 mm 3 mps 740 mmHg 83%
    21:00 +21°C° 0.1 mm 3 mps 741 mmHg 88%
    22:00 +20°C° 0 mm 3 mps 741 mmHg 90%
    23:00 +20°C° 0 mm 3 mps 741 mmHg 91%

    19 July, Thursday

    Time Temperature Precipitation Wind Pressure Humidity
    00:00 +19°C° 0 mm 2 mps 741 mmHg 93%
    01:00 +19°C° 0 mm 2 mps 741 mmHg 93%
    02:00 +18°C° 0 mm 2 mps 741 mmHg 94%
    03:00 +18°C° 0 mm 2 mps 741 mmHg 94%
    04:00 +19°C° 0 mm 2 mps 742 mmHg 92%
    05:00 +19°C° 0 mm 2 mps 742 mmHg 90%
    06:00 +20°C° 0 mm 3 mps 742 mmHg 88%
    07:00 +21°C° 0.2 mm 3 mps 742 mmHg 83%
    08:00 +24°C° 0.2 mm 3 mps 742 mmHg 78%
    09:00 +26°C° 0.2 mm 3 mps 742 mmHg 72%
    10:00 +27°C° 0.4 mm 3 mps 742 mmHg 67%
    11:00 +28°C° 0.4 mm 4 mps 743 mmHg 62%
    12:00 +29°C° 0.4 mm 4 mps 743 mmHg 57%
    13:00 +29°C° 0.3 mm 4 mps 743 mmHg 58%
    14:00 +29°C° 0.3 mm 4 mps 743 mmHg 58%
    15:00 +29°C° 0.3 mm 5 mps 743 mmHg 58%
    16:00 +28°C° 0.4 mm 4 mps 743 mmHg 62%
    17:00 +28°C° 0.4 mm 3 mps 743 mmHg 67%
    18:00 +27°C° 0.4 mm 3 mps 743 mmHg 71%
    19:00 +25°C° 0.3 mm 3 mps 743 mmHg 76%
    20:00 +24°C° 0.3 mm 2 mps 743 mmHg 82%
    21:00 +21°C° 0.3 mm 2 mps 744 mmHg 87%
    22:00 +21°C° 0.1 mm 2 mps 744 mmHg 88%
    23:00 +20°C° 0.1 mm 2 mps 743 mmHg 89%

    20 July, Friday

    Time Temperature Precipitation Wind Pressure Humidity
    00:00 +20°C° 0.1 mm 2 mps 743 mmHg 90%
    01:00 +20°C° 0.3 mm 2 mps 744 mmHg 91%
    02:00 +19°C° 0.3 mm 2 mps 744 mmHg 92%
    03:00 +19°C° 0.3 mm 3 mps 744 mmHg 93%
    04:00 +20°C° 0.2 mm 3 mps 744 mmHg 92%
    05:00 +20°C° 0.2 mm 3 mps 744 mmHg 91%
    06:00 +20°C° 0.2 mm 3 mps 744 mmHg 91%
    07:00 +22°C° 0 mm 3 mps 744 mmHg 85%
    08:00 +25°C° 0 mm 3 mps 744 mmHg 79%
    09:00 +26°C° 0 mm 3 mps 744 mmHg 73%
    10:00 +27°C° 0.2 mm 4 mps 744 mmHg 68%
    11:00 +28°C° 0.2 mm 4 mps 744 mmHg 64%
    12:00 +30°C° 0.2 mm 4 mps 743 mmHg 59%
    13:00 +30°C° 0.1 mm 4 mps 743 mmHg 57%
    14:00 +32°C° 0.1 mm 4 mps 743 mmHg 56%
    15:00 +31°C° 0.1 mm 3 mps 743 mmHg 55%
    16:00 +29°C° 1.5 mm 3 mps 743 mmHg 64%
    17:00 +28°C° 1.5 mm 3 mps 743 mmHg 72%
    18:00 +26°C° 1.5 mm 3 mps 743 mmHg 81%
    19:00 +25°C° 0.1 mm 3 mps 743 mmHg 84%
    20:00 +24°C° 0.1 mm 2 mps 743 mmHg 87%
    21:00 +23°C° 0.1 mm 2 mps 742 mmHg 90%
    22:00 +23°C° 0.9 mm 2 mps 743 mmHg 92%
    23:00 +21°C° 0.9 mm 3 mps 743 mmHg 93%

    21 July, Saturday

    Time Temperature Precipitation Wind Pressure Humidity
    00:00 +21°C° 0.9 mm 3 mps 743 mmHg 94%
    01:00 +21°C° 0.1 mm 3 mps 743 mmHg 94%
    02:00 +21°C° 0.1 mm 2 mps 742 mmHg 94%
    03:00 +20°C° 0.1 mm 2 mps 742 mmHg 93%
    04:00 +21°C° 0 mm 2 mps 742 mmHg 93%
    05:00 +21°C° 0 mm 2 mps 743 mmHg 93%
    06:00 +21°C° 0 mm 2 mps 743 mmHg 93%
    07:00 +23°C° 0 mm 2 mps 743 mmHg 88%
    08:00 +25°C° 0 mm 2 mps 743 mmHg 82%
    09:00 +26°C° 0 mm 2 mps 743 mmHg 77%
    10:00 +27°C° 0.4 mm 2 mps 743 mmHg 73%
    11:00 +28°C° 0.4 mm 3 mps 743 mmHg 69%
    12:00 +30°C° 0.4 mm 3 mps 743 mmHg 65%
    13:00 +30°C° 0.3 mm 3 mps 743 mmHg 64%
    14:00 +30°C° 0.3 mm 3 mps 743 mmHg 64%
    15:00 +30°C° 0.3 mm 3 mps 743 mmHg 64%
    16:00 +29°C° 0.6 mm 3 mps 743 mmHg 67%
    17:00 +29°C° 0.6 mm 2 mps 743 mmHg 70%
    18:00 +29°C° 0.6 mm 2 mps 743 mmHg 73%
    19:00 +27°C° 0.2 mm 2 mps 743 mmHg 78%
    20:00 +25°C° 0.2 mm 2 mps 743 mmHg 83%
    21:00 +24°C° 0.2 mm 2 mps 743 mmHg 88%
    22:00 +23°C° 0 mm 2 mps 743 mmHg 89%
    23:00 +23°C° 0 mm 2 mps 743 mmHg 90%
    Show more